Regional Weather Roundup
Issued by NWS Sioux Falls, SD

Home | Current Version | Previous Version | Text Only | Print | Product List | Glossary Off
Versions: 1 2 3 4 5 6 7 8 9 10 11 12 13 14 15 16 17 18 19 20 21 22 23 24 25 26 27 28 29 30 31 32 33 34 35 36 37 38 39 40 41 42 43 44 45 46 47 48 49 50

000
ASUS43 KFSD 281202
RWRFSD

WEATHER ROUNDUP FOR SE SOUTH DAKOTA/SW MINNESOTA/NW IOWA
NATIONAL WEATHER SERVICE SIOUX FALLS SD
700 AM CDT THU MAY 28 2015

NOTE: "FAIR" INDICATES FEW OR NO CLOUDS BELOW 12,000 FEET WITH NO
SIGNIFICANT WEATHER AND OR OBSTRUCTIONS TO VISIBILITY.


SDZ038>040-050-052>070-281300-
SOUTHEAST SOUTH DAKOTA

CITY           SKY/WX    TMP DP  RH WIND       PRES   REMARKS
BROOKINGS      PTSUNNY   64  52  63 S9        30.03R
CHAMBERLAIN    CLOUDY    62  57  86 S8        29.96R
6HR MIN TEMP:  59; 6HR MAX TEMP:  64;

HURON            N/A    N/A N/A N/A MISG      29.96R
MADISON        CLOUDY    63  54  72 S12       30.02S
MITCHELL       CLOUDY    66  54  65 S10       29.98S
6HR MIN TEMP:  63; 6HR MAX TEMP:  69;

SIOUX FALLS    CLOUDY    65  52  62 S10       30.02S
6HR MIN TEMP:  64; 6HR MAX TEMP:  66;

WINNER         PTSUNNY   64  56  75 S18       29.95S
YANKTON        CLOUDY    64  54  68 S7        30.01S
$$

MNZ071-072-080-081-089-090-097-098-281300-
SOUTHWEST MINNESOTA

CITY           SKY/WX    TMP DP  RH WIND       PRES   REMARKS
FAIRMONT       SUNNY     59  52  77 S8        30.08R
JACKSON        MOSUNNY   61  52  72 S8        30.08S
LUVERNE        PTSUNNY   59  52  77 CALM      30.06R
MARSHALL       PTSUNNY   64  48  55 SW14      30.02R
6HR MIN TEMP:  63; 6HR MAX TEMP:  66;

MONTEVIDEO     MOSUNNY   63  52  67 SW7       30.01S
REDWOOD FALLS  MOSUNNY   62  52  69 S8        30.03R
TRACY          PTSUNNY   65  52  63 SW10      30.04R
WINDOM         MOSUNNY   63  52  67 CALM      30.06S
WORTHINGTON    MOSUNNY   63  48  59 S10       30.07R
$$

IAZ001>003-012>014-020>022-031-032-NEZ013-014-SDZ071-281300-
NORTHWEST IOWA

CITY           SKY/WX    TMP DP  RH WIND       PRES   REMARKS
DENISON        CLOUDY    61  57  88 SE6       30.08R
ESTHERVILLE    SUNNY     57  54  89 S7        30.09R
SIOUX CITY     PTSUNNY   60  53  77 SE8       30.06R
6HR MIN TEMP:  56; 6HR MAX TEMP:  65;

SPENCER        MOSUNNY   59  54  83 S6        30.09R
6HR MIN TEMP:  55; 6HR MAX TEMP:  64;

$$

ABBREVIATIONS USED IN REMARKS
   TC - TEMPERATURE IN CELSIUS
  WCI - WIND CHILL INDEX
   HX - HEAT INDEX
  VSB - VISIBILITY



USA.gov is the U.S. government's official web portal to all federal, state and local government web resources and services.